Weather History for North Myrtle Beach, SC

Change the Weather History Date:

Thursday, May 24, 2012

  Actual Average Record
Temperature  
Mean Temperature 74 °F 72 °F  
Max Temperature 82 °F 80 °F 90 °F (2000)
Min Temperature 66 °F 63 °F 46 °F (1954)
Degree Days  
Heating Degree Days 0 0  
Month to date heating degree days 0 23  
Since 1 July heating degree days 1785 2446  
Cooling Degree Days 9 7  
Month to date cooling degree days 172 115  
Year to date cooling degree days 322 157  
Growing Degree Days 24 (Base 50)    
Moisture  
Dew Point 70 °F    
Average Humidity 83    
Maximum Humidity 97    
Minimum Humidity 69    
Precipitation  
Precipitation 0.00 in 0.12 in 0.56 in (2005)
Month to date precipitation 2.43 2.49  
Year to date precipitation 10.89 16.48  
Sea Level Pressure  
Sea Level Pressure 29.99 in    
Wind  
Wind Speed 5 mph (SE)    
Max Wind Speed 14 mph    
Max Gust Speed 24 mph    
Visibility 7 miles    
Events Fog    
T = Trace of Precipitation, MM = Missing Value Source: NWS Daily Summary

Daily Weather History Graph

Daily Weather History Graph

Search for Another Location

Airport:

Trip Planner

Search our weather history database for the weather conditions in past years. The results will help you decide how hot, cold, wet, or windy it might be!

Date:

Astronomy

May. 24, 2012 Rise Set
Actual Time 6:08 AM EDT 8:15 PM EDT
Civil Twilight 5:39 AM EDT 8:44 PM EDT
Nautical Twilight 5:05 AM EDT 9:18 PM EDT
Astronomical Twilight 4:28 AM EDT 9:55 PM EDT
Moon 9:04 AM EDT (5/24) 11:17 PM EDT (5/24)
Length of Visible Light 15h 04m
Length of Day
14h 07m
Waxing Crescent, 12% of the Moon is Illuminated
May 24
Waxing Crescent
May 28
First Quarter
Jun 4
Full
Jun 11
Last Quarter
Jun 19
New

Hourly Weather History & Observations

Time (EDT) Temp. Heat Index Dew Point Humidity Pressure Visibility Wind Dir Wind Speed Gust Speed Precip Events Conditions
12:53 AM 73.9 °F - 71.1 °F 91% 29.96 in 10.0 mi South 5.8 mph - N/A   Mostly Cloudy
1:11 AM 73.4 °F - 71.6 °F 94% 29.95 in 10.0 mi South 4.6 mph - N/A   Scattered Clouds
1:53 AM 73.9 °F - 71.1 °F 91% 29.96 in 10.0 mi South 5.8 mph - N/A   Clear
2:53 AM 73.0 °F - 70.0 °F 90% 29.94 in 10.0 mi South 4.6 mph - N/A   Clear
3:53 AM 73.0 °F - 70.0 °F 90% 29.94 in 10.0 mi SSW 3.5 mph - N/A   Clear
4:17 AM 69.8 °F - 69.8 °F 100% 29.95 in 1.8 mi Calm Calm - N/A   Clear
4:37 AM 69.8 °F - 69.8 °F 100% 29.95 in 2.0 mi Calm Calm - N/A   Clear
4:44 AM 69.8 °F - 68.0 °F 94% 29.95 in 0.8 mi Calm Calm - N/A   Mist
4:53 AM 69.1 °F - 68.0 °F 96% 29.96 in 0.5 mi Calm Calm - N/A Fog Fog
5:17 AM 68.0 °F - 66.2 °F 94% 29.95 in 1.0 mi Calm Calm - N/A   Clear
5:35 AM 69.8 °F - 66.2 °F 88% 29.96 in 3.0 mi Calm Calm - N/A   Clear
5:43 AM 68.0 °F - 66.2 °F 94% 29.96 in 1.5 mi Calm Calm - N/A   Partly Cloudy
5:45 AM 68.0 °F - 66.2 °F 94% 29.96 in 0.8 mi Calm Calm - N/A   Mist
5:53 AM 68.0 °F - 66.0 °F 93% 29.97 in 0.2 mi Calm Calm - N/A Fog Fog
6:00 AM 68.0 °F - 66.2 °F 94% 29.96 in 0.2 mi Calm Calm - N/A Fog Fog
6:09 AM 66.2 °F - 66.2 °F 100% 29.97 in 0.2 mi Calm Calm - N/A Fog Fog
6:37 AM 68.0 °F - 66.2 °F 94% 29.98 in 0.2 mi Calm Calm - N/A Fog Fog
6:53 AM 68.0 °F - 66.9 °F 96% 29.99 in 1.0 mi Calm Calm - N/A   Mist
7:01 AM 68.0 °F - 66.2 °F 94% 29.99 in 1.5 mi Calm Calm - N/A   Overcast
7:14 AM 69.8 °F - 66.2 °F 88% 29.99 in 2.5 mi Calm Calm - 0.01 in   Overcast
7:24 AM 71.6 °F - 69.8 °F 94% 29.99 in 3.0 mi Calm Calm - 0.01 in   Scattered Clouds
7:53 AM 73.9 °F - 72.0 °F 93% 30.00 in 7.0 mi Calm Calm - 0.01 in   Partly Cloudy
8:53 AM 77.0 °F - 71.1 °F 82% 30.01 in 10.0 mi Calm Calm - N/A   Scattered Clouds
9:06 AM 78.8 °F - 71.6 °F 78% 30.01 in 10.0 mi ESE 3.5 mph - N/A   Mostly Cloudy
9:44 AM 78.8 °F - 71.6 °F 78% 30.02 in 10.0 mi ESE 8.1 mph - N/A   Mostly Cloudy
9:53 AM 78.1 °F - 72.0 °F 81% 30.02 in 10.0 mi SE 6.9 mph - N/A   Mostly Cloudy
10:00 AM 78.8 °F - 71.6 °F 78% 30.02 in 10.0 mi ESE 6.9 mph - N/A   Scattered Clouds
10:08 AM 80.6 °F 84.6 °F 71.6 °F 74% 30.03 in 10.0 mi East 9.2 mph - N/A   Mostly Cloudy
10:24 AM 78.8 °F - 71.6 °F 78% 30.03 in 10.0 mi SSE 8.1 mph - N/A   Mostly Cloudy
10:53 AM 79.0 °F - 71.1 °F 77% 30.04 in 10.0 mi SE 8.1 mph - N/A   Scattered Clouds
11:53 AM 80.1 °F 83.6 °F 71.1 °F 74% 30.03 in 10.0 mi SE 8.1 mph - N/A   Partly Cloudy
12:53 PM 80.1 °F 83.8 °F 72.0 °F 76% 30.03 in 10.0 mi SE 10.4 mph - N/A   Clear
1:53 PM 81.0 °F 84.9 °F 71.1 °F 72% 30.03 in 10.0 mi SSE 6.9 mph - N/A   Scattered Clouds
2:53 PM 81.0 °F 84.9 °F 71.1 °F 72% 30.03 in 10.0 mi SSE 9.2 mph - N/A   Clear
3:53 PM 80.1 °F 83.2 °F 70.0 °F 71% 30.02 in 10.0 mi ESE 12.7 mph - N/A   Partly Cloudy
4:53 PM 80.1 °F 83.6 °F 71.1 °F 74% 30.01 in 10.0 mi SE 10.4 mph - N/A   Clear
5:53 PM 80.1 °F 83.8 °F 72.0 °F 76% 30.01 in 10.0 mi ESE 8.1 mph - N/A   Scattered Clouds
6:53 PM 78.1 °F - 70.0 °F 76% 30.00 in 10.0 mi ESE 8.1 mph - N/A   Clear
7:32 PM 77.0 °F - 69.8 °F 78% 30.00 in 10.0 mi East 6.9 mph - N/A   Mostly Cloudy
7:39 PM 77.0 °F - 69.8 °F 78% 30.00 in 10.0 mi ESE 8.1 mph - N/A   Scattered Clouds
7:53 PM 77.0 °F - 70.0 °F 79% 30.01 in 10.0 mi ESE 5.8 mph - N/A   Mostly Cloudy
8:03 PM 75.2 °F - 69.8 °F 83% 30.00 in 10.0 mi SE 5.8 mph - N/A   Scattered Clouds
8:53 PM 75.0 °F - 70.0 °F 84% 30.01 in 10.0 mi SE 6.9 mph - N/A   Clear
9:39 PM 75.2 °F - 69.8 °F 83% 30.01 in 10.0 mi ESE 3.5 mph - N/A   Partly Cloudy
9:53 PM 75.0 °F - 70.0 °F 84% 30.01 in 10.0 mi East 3.5 mph - N/A   Partly Cloudy
11:25 PM 75.2 °F - 69.8 °F 83% 30.02 in 10.0 mi East 4.6 mph - N/A   Mostly Cloudy
11:48 PM 73.4 °F - 69.8 °F 88% 30.01 in 10.0 mi East 4.6 mph - N/A   Scattered Clouds
11:53 PM 73.9 °F - 69.1 °F 85% 30.02 in 10.0 mi ENE 3.5 mph - N/A   Scattered Clouds